Terminal Aerodrome Forecast
Issued by NWS Portland, ME

Home | Current Version | Previous Version | Text Only | Print | Product List | Glossary On
Versions: 1 2 3 4 5 6 7 8 9 10 11 12 13 14 15 16 17 18 19
000
FTUS41 KGYX 280500
TAFPWM
TAF
KPWM 280534Z 2806/2906 19003KT 4SM BR OVC005
     FM281300 14008KT 5SM -SHRA BR OVC010
     FM281500 15009KT 2SM SHRA OVC012
     FM282300 20007KT P6SM -SHRA BKN018 OVC030
     FM290400 20006KT P6SM BKN040=

USA.gov is the U.S. government's official web portal to all federal, state and local government web resources and services.